Monroe, LA

1:27 AM CDT on August 20, 2017 (GMT -0500)
Monroe Regional

Weather History for KMLU - April, 2013

Change the Weather History Date:

Tuesday, April 9, 2013

  Actual Average Record
Temperature  
Mean Temperature 76 °F 64 °F  
Max Temperature 86 °F 76 °F 90 °F (2011)
Min Temperature 66 °F 52 °F 37 °F (2003)
Degree Days  
Heating Degree Days 0 4  
Month to date heating degree days 60 40  
Since 1 July heating degree days 2087 2184  
Cooling Degree Days 11 3  
Month to date cooling degree days 17 20  
Year to date cooling degree days 38 63  
Growing Degree Days 25 (Base 50)    
Moisture  
Dew Point 65 °F    
Average Humidity 74    
Maximum Humidity 93    
Minimum Humidity 55    
Precipitation  
Precipitation 0.00 in 0.15 in 0.95 in (1955)
Month to date precipitation 0.64 1.31  
Year to date precipitation 16.85 15.67  
Snow  
Snow 0.00 in - - ()
Month to date snowfall 0.0  
Since 1 July snowfall 0.3  
Snow Depth 0.00 in    
Sea Level Pressure  
Sea Level Pressure 29.89 in    
Wind  
Wind Speed 11 mph (South)    
Max Wind Speed 22 mph    
Max Gust Speed 35 mph    
Visibility 10 miles    
Events      
T = Trace of Precipitation, MM = Missing Value Source: NWS Daily Summary

Daily Weather History Graph

Daily Weather History Graph

Search for Another Location

Airport or City:

Trip Planner

Search our weather history database for the weather conditions in past years. The results will help you decide how hot, cold, wet, or windy it might be!

Date:

Astronomy

Apr. 09, 2013 Rise Set
Actual Time 6:45 AM CDT 7:33 PM CDT
Civil Twilight 6:20 AM CDT 7:58 PM CDT
Nautical Twilight 5:51 AM CDT 8:28 PM CDT
Astronomical Twilight 5:21 AM CDT 8:58 PM CDT
Moon 6:07 AM CDT (4/9) 7:09 PM CDT (4/9)
Length of Visible Light 13h 38m
Length of Day
12h 48m
Waning Crescent, 1% of the Moon is Illuminated
Apr 9
Waning Crescent
Apr 10
New
Apr 18
First Quarter
Apr 25
Full
May 2
Last Quarter

Hourly Weather History & Observations

Time (CDT) Temp. Heat Index Dew Point Humidity Pressure Visibility Wind Dir Wind Speed Gust Speed Precip Events Conditions
12:53 AM 66.9 °F - 60.1 °F 79% 29.90 in 10.0 mi SSE 4.6 mph - N/A   Clear
1:53 AM 66.9 °F - 61.0 °F 81% 29.89 in 10.0 mi South 6.9 mph - N/A   Clear
2:53 AM 66.9 °F - 61.0 °F 81% 29.86 in 10.0 mi South 10.4 mph 18.4 mph N/A   Clear
3:53 AM 66.9 °F - 62.1 °F 84% 29.86 in 10.0 mi SSE 6.9 mph - N/A   Clear
4:53 AM 66.0 °F - 63.0 °F 90% 29.88 in 10.0 mi Variable 3.5 mph - N/A   Scattered Clouds
5:53 AM 66.0 °F - 64.0 °F 93% 29.89 in 9.0 mi Calm Calm - N/A   Overcast
6:04 AM 66.2 °F - 64.4 °F 94% 29.89 in 9.0 mi Variable 3.5 mph - N/A   Overcast
6:22 AM 66.2 °F - 64.4 °F 94% 29.89 in 8.0 mi Calm Calm - N/A   Overcast
6:29 AM 66.2 °F - 64.4 °F 94% 29.89 in 8.0 mi ESE 3.5 mph - N/A   Overcast
6:51 AM 66.2 °F - 64.4 °F 94% 29.90 in 8.0 mi Calm Calm - N/A   Overcast
6:53 AM 66.9 °F - 64.0 °F 90% 29.90 in 8.0 mi Calm Calm - N/A   Overcast
7:33 AM 66.2 °F - 64.4 °F 94% 29.91 in 7.0 mi Calm Calm - N/A   Overcast
7:42 AM 68.0 °F - 64.4 °F 88% 29.91 in 7.0 mi Variable 3.5 mph - N/A   Overcast
7:53 AM 69.1 °F - 64.9 °F 87% 29.91 in 8.0 mi SSE 5.8 mph - N/A   Overcast
8:53 AM 72.0 °F - 66.0 °F 81% 29.93 in 10.0 mi South 12.7 mph 21.9 mph N/A   Overcast
9:12 AM 71.6 °F - 64.4 °F 78% 29.93 in 10.0 mi South 16.1 mph 23.0 mph N/A   Mostly Cloudy
9:34 AM 73.4 °F - 64.4 °F 73% 29.92 in 10.0 mi South 12.7 mph 25.3 mph N/A   Overcast
9:53 AM 73.0 °F - 66.0 °F 79% 29.93 in 10.0 mi South 11.5 mph 20.7 mph N/A   Overcast
10:53 AM 75.9 °F - 66.9 °F 74% 29.94 in 10.0 mi South 13.8 mph 19.6 mph N/A   Overcast
11:08 AM 77.0 °F - 66.2 °F 69% 29.94 in 10.0 mi South 16.1 mph 26.5 mph N/A   Overcast
11:53 AM 78.1 °F - 66.9 °F 68% 29.92 in 10.0 mi South 15.0 mph 25.3 mph N/A   Overcast
12:00 PM 80.6 °F 83.2 °F 68.0 °F 65% 29.93 in 10.0 mi South 15.0 mph 25.3 mph N/A   Mostly Cloudy
12:53 PM 80.1 °F 82.3 °F 66.9 °F 64% 29.90 in 10.0 mi South 15.0 mph 25.3 mph N/A   Overcast
1:53 PM 82.9 °F 85.8 °F 68.0 °F 60% 29.87 in 10.0 mi South 17.3 mph 34.5 mph N/A   Mostly Cloudy
2:53 PM 82.9 °F 85.0 °F 66.0 °F 56% 29.86 in 10.0 mi South 17.3 mph 29.9 mph N/A   Mostly Cloudy
3:53 PM 84.9 °F 87.6 °F 66.9 °F 55% 29.85 in 10.0 mi South 13.8 mph 26.5 mph N/A   Mostly Cloudy
4:53 PM 82.9 °F 85.8 °F 68.0 °F 60% 29.86 in 10.0 mi South 12.7 mph 23.0 mph N/A   Mostly Cloudy
5:53 PM 82.0 °F 84.5 °F 66.9 °F 60% 29.81 in 10.0 mi SSE 12.7 mph 26.5 mph N/A   Clear
6:53 PM 81.0 °F 83.8 °F 68.0 °F 65% 29.84 in 10.0 mi South 10.4 mph 19.6 mph N/A   Clear
7:53 PM 80.1 °F 82.3 °F 66.9 °F 64% 29.85 in 10.0 mi South 13.8 mph 20.7 mph N/A   Partly Cloudy
8:53 PM 79.0 °F - 66.9 °F 66% 29.88 in 10.0 mi South 13.8 mph 20.7 mph N/A   Mostly Cloudy
9:53 PM 78.1 °F - 66.9 °F 68% 29.88 in 10.0 mi South 12.7 mph 20.7 mph N/A   Mostly Cloudy
10:53 PM 75.9 °F - 66.9 °F 74% 29.87 in 10.0 mi South 12.7 mph 21.9 mph N/A   Partly Cloudy
11:36 PM 75.2 °F - 66.2 °F 73% 29.89 in 10.0 mi South 10.4 mph 18.4 mph N/A   Mostly Cloudy
11:53 PM 75.9 °F - 68.0 °F 76% 29.88 in 10.0 mi South 11.5 mph 21.9 mph N/A   Overcast